This is the latest recevied weather packets stored in our database for station/object N9XRG. If no packets are shown the sender has not sent any weather packets the latest 10 day(s).
| Time | Temp. | Humidity | Pressure | Rain* | Wind** | Luminosity | Snow |
|---|---|---|---|---|---|---|---|
| 1777635516 | 3.89° C | 94% | 1012.6 hPa | 0 mm | - | 8 W/m² | - |
| 1777635213 | 3.89° C | 94% | 1012.5 hPa | 0 mm | - | 7 W/m² | - |
| 1777634910 | 3.89° C | 94% | 1012.5 hPa | 0 mm | - | 9 W/m² | - |
| 1777634607 | 3.89° C | 94% | 1012.4 hPa | 0 mm | - | 5 W/m² | - |
| 1777634304 | 3.89° C | 95% | 1012.2 hPa | 0 mm | - | 5 W/m² | - |
| 1777634000 | 3.89° C | 95% | 1012.4 hPa | 0 mm | - | 3 W/m² | - |
| 1777633697 | 3.89° C | 95% | 1012.1 hPa | 0.51 mm | - | 2 W/m² | - |
| 1777633395 | 3.89° C | 95% | 1011.9 hPa | 0.51 mm | - | 2 W/m² | - |
| 1777633093 | 3.89° C | 94% | 1012 hPa | 0 mm | - | 2 W/m² | - |
| 1777632789 | 3.89° C | 95% | 1012.2 hPa | 0 mm | - | 1 W/m² | - |
| 1777632485 | 3.89° C | 94% | 1012.3 hPa | 0 mm | - | 1 W/m² | - |
| 1777632182 | 3.89° C | 94% | 1012.5 hPa | 0 mm | - | 0 W/m² | - |
| 1777631879 | 3.89° C | 94% | 1012.7 hPa | 0.51 mm | - | 0 W/m² | - |
| 1777631578 | 3.89° C | 94% | 1012.6 hPa | 1.27 mm | - | 0 W/m² | - |
| 1777631274 | 3.89° C | 94% | 1012.6 hPa | 1.27 mm | - | 0 W/m² | - |
| 1777630972 | 3.89° C | 94% | 1012.4 hPa | 3.05 mm | - | 0 W/m² | - |
| 1777630667 | 3.89° C | 94% | 1012.5 hPa | 2.29 mm | - | 0 W/m² | - |
| 1777630365 | 4.44° C | 93% | 1012.7 hPa | 1.27 mm | - | 0 W/m² | - |
| 1777630062 | 4.44° C | 94% | 1012.4 hPa | 1.27 mm | - | 0 W/m² | - |
| 1777629759 | 4.44° C | 93% | 1012.7 hPa | 0 mm | - | 0 W/m² | - |
| 1777629456 | 4.44° C | 93% | 1012.5 hPa | 0 mm | - | 0 W/m² | - |
| 1777629152 | 4.44° C | 93% | 1012.5 hPa | 0 mm | - | 0 W/m² | - |
| 1777628848 | 5° C | 94% | 1012.7 hPa | 0 mm | - | 0 W/m² | - |
| 1777628545 | 5° C | 94% | 1012.4 hPa | 0 mm | - | 0 W/m² | - |
| 1777628241 | 5° C | 94% | 1012.6 hPa | 0 mm | - | 0 W/m² | - |
* Rain latest hour (hover to see other rain measurements)
** Current wind speed in m/s (hover to see current wind gust speed)